Home > Weather > Płock > Past weeks

Flag for Poland Weather for the Past 2 Weeks in Płock, Poland

Now
39 °F

Fog.


Feels Like: 36 °F
Forecast: 36 / 47 °F
Wind: 3 mph from South

Location: Plock

Current Time: Feb 6, 2016 at 1:18:49 PM

Latest Report: Feb 6, 2016 at 12:00 PM


Visibility: 1 mi

Pressure: 30.15 "Hg

Humidity: 95%

Dew point: 38 °F

Location of PłockLocation

Historic Weather in Płock — Graph

°F

Płock Temperature Yesterday

Maximum temperature yesterday: 36 °F (at 3:00 PM)
Minimum temperature yesterday: 33 °F (at 6:00 AM)
Average temperature yesterday: 34 °F

High & Low Weather Summary for the Past Weeks

 TemperatureHumidityPressure
High51 °F (Feb 2, 3:00 PM)100% (Jan 26, 6:00 AM)30.58 "Hg (Jan 26, 6:00 AM)
Low11 °F (Jan 23, 5:00 AM)55% (Feb 2, 3:00 PM)29.50 "Hg (Jan 31, 1:00 AM)
Average37 °F82%30.05 "Hg
* Reported Jan 22 12:00 Noon — Feb 6 12:00 Noon, Płock, Weather by CustomWeather, © 2016

Note: Actual official high and low records may vary slightly from our data, if they occured in-between our weather recording intervals... More about our weather records

Advertising

Płock Weather History for the Previous 24 Hours

 ConditionsComfort  
Time TempWeatherWind HumidityBarometerVisibility
12:00 PM
Sat, Feb 6
39 °FFog.3 mph95%30.15 "Hg1 mi
11:00 AM37 °FFog.3 mph96%30.17 "Hg1 mi
10:00 AM36 °FFog.3 mph94%30.17 "Hg1 mi
9:00 AM35 °FFog.2 mph93%30.18 "Hg2 mi
8:00 AM35 °FFog.2 mph91%30.18 "Hg3 mi
7:00 AM34 °FFog.3 mph90%30.17 "Hg5 mi
6:00 AM34 °FChilly.2 mph84%30.16 "Hg6 mi
5:00 AM34 °FChilly.2 mph81%30.17 "Hg7 mi
4:00 AM34 °FChilly.2 mph80%30.18 "Hg8 mi
3:00 AM33 °FFog.2 mph85%30.19 "Hg6 mi
11:00 PM
Fri, Feb 5
35 °FChilly.5 mph81%30.20 "Hg9 mi
10:00 PM35 °FChilly.3 mph82%30.21 "Hg9 mi
9:00 PM33 °FChilly.3 mph85%30.20 "Hg8 mi
8:00 PM33 °FChilly.3 mph81%30.21 "Hg9 mi
7:00 PM34 °FChilly.5 mph80%30.21 "Hg12 mi
6:00 PM36 °FChilly.3 mph71%30.21 "Hg18 mi
5:00 PM36 °FChilly.6 mph69%30.21 "Hg22 mi
4:00 PM36 °FChilly.5 mph69%30.19 "Hg19 mi
3:00 PM36 °FChilly.6 mph67%30.20 "Hg22 mi
2:00 PM36 °FChilly.6 mph68%30.19 "Hg25 mi
1:00 PM36 °FChilly.6 mph74%30.21 "Hg10 mi
Weather by CustomWeather, © 2016

See weather overviewHow to use our weather pages